Location: Unspecified
(44.0704°N, 88.6889°W)
Time: 20:31:53
(UTC+02:00)

Altair - Pass Details

Date: 23 June 2019
Orbit: 1501 x 1683 km, 47.2° (Epoch: 15 July)

Event Time Altitude Azimuth Distance (km) Brightness Sun altitude
Rises 02:18:59 0° 209° (SSW) 4,661 10.1 12.3°
Reaches altitude 10° 02:22:12 10° 202° (SSW) 3,701 9.6 11.8°
Maximum altitude 02:30:42 40° 137° (SE) 2,165 8.0 10.3°
Drops below altitude 10° 02:39:30 10° 72° (ENE) 3,843 9.2 8.9°
Sets 02:42:54 0° 65° (ENE) 4,857 9.7 8.3°
